Temp_Advection
nan nan nan nan nan nan nan nan nan nan nan nan nan nan nan nan nan nan nan nan nan nan nan nan nan nan nan nan nan nan nan nan nan nan nan nan nan nan
nan -1 -0 -0 -0 0 -0 -0 1 1 1 0 0 0 0 0 0 1 0 0 0 0 0 0 0 0 0 0 -0 0 0 0 0 -0 -0 0 0 nan
nan 1 0 -0 -0 -0 0 0 0 0 0 0 0 0 0 0 1 1 1 0 0 0 0 0 0 0 0 0 0 0 0 0 0 -0 0 0 -0 nan
nan 0 -0 -1 -1 0 1 1 1 1 0 -0 1 0 0 1 1 0 0 0 0 -0 0 0 0 0 0 0 0 0 0 0 0 0 -0 -0 0 nan
nan 0 -0 -0 0 1 0 1 1 -0 0 1 0 0 0 1 1 0 0 1 0 0 0 0 0 0 0 0 0 0 0 0 -0 -0 -0 0 0 nan
nan 0 0 -0 -0 -0 0 1 0 -0 0 0 0 0 1 1 0 1 0 0 0 0 0 0 0 0 0 0 0 -0 0 0 0 -0 0 0 0 nan
nan -0 -0 0 0 -0 0 -0 -0 -0 0 0 0 0 0 0 0 1 1 1 0 0 0 0 0 0 0 0 0 -0 0 0 0 0 0 0 0 nan
nan 0 -0 -0 -0 -0 -1 -1 -0 0 0 0 0 0 1 0 0 1 1 0 -0 0 0 0 0 0 0 0 0 0 0 0 0 0 0 0 0 nan
nan 0 1 0 -0 -1 -1 -0 -0 -0 0 0 0 0 0 0 0 1 0 0 0 0 0 0 0 0 0 0 0 0 0 -0 -0 0 0 -0 0 nan
nan 0 0 0 0 -0 -0 -0 -0 -0 0 0 0 0 0 1 1 0 0 0 0 0 0 0 0 0 0 0 0 0 0 -0 0 0 -0 0 0 nan
nan 0 -0 0 0 0 -0 -0 -0 0 0 0 0 0 0 0 0 -0 -0 0 0 0 1 0 0 0 0 0 -0 0 0 -0 -0 -0 0 0 0 nan
nan 0 0 0 0 0 0 0 0 0 0 0 0 0 0 -0 -0 0 1 1 0 0 0 0 0 0 -0 -0 -0 0 -0 -0 0 0 0 0 0 nan
nan 0 -0 0 0 -0 0 0 0 -0 -0 -0 -0 -0 -0 0 0 1 0 0 0 0 0 0 0 0 -0 0 0 0 0 0 0 0 0 0 0 nan
nan 0 0 0 0 0 0 0 -0 -0 -0 -0 -0 0 0 0 0 0 0 0 0 1 0 -0 -0 -0 -0 0 0 -0 0 0 0 0 0 0 0 nan
nan 0 0 0 0 0 -0 -0 -0 -0 0 0 0 0 0 -0 0 0 0 -0 0 0 -0 -0 -0 -0 0 -0 -0 0 0 0 0 0 0 0 0 nan
nan 1 0 0 -0 -0 -0 -0 -0 0 0 0 0 0 -0 -0 0 0 0 0 0 -0 -0 -0 -0 -0 -0 -0 -0 0 0 0 0 0 0 0 0 nan
nan 0 1 -0 -1 -0 0 0 0 -0 -0 0 0 -0 -0 0 0 0 -0 0 -0 -0 -0 -0 -0 -0 -0 -0 0 0 0 0 0 0 -0 0 0 nan
nan 0 1 -0 -1 -0 0 0 0 0 0 0 -0 -0 0 0 0 -0 0 0 -0 -0 -0 -0 0 0 0 -0 -0 0 0 0 0 0 -0 -1 0 nan
nan 0 0 -0 -0 -0 0 0 0 0 0 -0 -0 0 0 0 -0 -0 0 -0 -0 -0 -0 -0 0 0 -0 -0 0 0 0 0 0 0 0 -1 -1 nan
nan 1 1 -0 -1 0 0 0 -0 0 -0 -0 -0 0 0 0 -0 -0 0 -0 0 -0 -0 -0 0 0 0 -0 -0 0 0 1 0 0 0 -0 -1 nan
nan -0 0 0 0 0 -0 -0 0 0 -0 -0 -0 0 0 -0 -0 0 0 0 -0 -0 -0 0 1 0 -0 -1 -1 1 1 0 0 0 -0 -1 -1 nan
nan 0 0 0 -0 -0 -0 -0 -0 -0 -0 -0 -0 0 0 0 -0 0 0 0 -0 -0 1 1 1 -0 -0 -1 -0 0 1 1 1 1 0 -0 -1 nan
nan nan nan nan nan nan nan nan nan nan nan nan nan nan nan nan nan nan nan nan nan nan nan nan nan nan nan nan nan nan nan nan nan nan nan nan nan nan
Wind_Speed
23 23 21 19 17 22 27 28 29 27 24 26 26 27 24 24 22 17 16 15 14 14 16 16 17 15 15 17 14 15 19 16 18 16 14 16 14 14
16 19 24 26 26 26 30 28 28 26 28 25 25 22 21 25 20 19 16 14 14 14 17 19 17 16 16 18 18 17 17 19 16 15 15 15 15 15
28 29 29 29 29 29 28 28 29 28 29 33 26 26 27 22 23 19 16 18 16 16 15 14 16 16 16 18 19 18 17 15 15 15 16 15 14 14
30 29 28 29 31 31 31 31 32 29 26 30 28 24 24 23 20 18 19 17 13 15 16 17 18 18 17 17 16 15 15 14 16 16 14 13 13 13
26 29 30 31 30 29 28 28 25 22 24 30 29 23 25 25 24 19 20 17 15 18 17 16 15 14 14 14 14 15 15 15 16 15 14 13 11 7
25 28 29 30 29 27 26 23 22 21 25 25 27 27 22 22 22 20 19 17 16 17 17 15 14 14 15 15 16 15 14 15 16 15 13 9 7 6
23 26 27 26 24 22 22 21 21 23 24 24 24 24 26 23 20 19 19 18 17 17 16 16 15 16 16 16 16 15 15 15 14 11 9 8 7 7
21 22 24 23 22 20 20 20 21 24 23 23 25 23 20 18 18 21 19 21 19 17 18 17 17 17 16 15 14 14 13 11 10 10 9 9 8 8
18 18 21 21 21 20 21 21 21 21 20 21 19 19 18 18 20 20 20 19 17 16 13 14 15 15 15 14 14 12 11 10 10 10 10 10 10 11
18 18 20 22 21 18 18 17 17 16 17 18 17 18 19 19 17 16 15 16 17 18 18 17 17 15 13 12 11 12 11 10 10 11 11 12 12 11
20 18 17 18 17 16 16 16 16 17 18 17 18 17 16 15 15 16 17 18 18 18 18 16 15 14 13 13 13 12 11 11 11 12 12 11 12 14
19 17 16 16 17 16 15 13 14 13 13 13 13 14 14 14 16 17 18 17 18 16 18 17 13 13 10 14 14 13 13 13 13 13 12 13 15 18
19 17 15 16 16 16 15 13 12 11 12 12 12 13 13 14 15 16 17 17 17 16 10 15 12 15 11 5 11 12 12 12 13 14 15 16 17 19
19 19 18 17 17 15 13 11 12 12 13 14 13 13 13 12 13 13 14 14 14 15 15 12 12 13 14 12 12 13 14 14 14 15 17 19 19 19
19 20 19 18 15 11 10 11 13 12 14 14 13 12 12 13 12 13 13 13 12 13 14 16 15 15 15 15 14 14 13 14 16 16 19 20 17 17
20 19 17 16 12 13 13 14 14 13 13 12 11 12 12 12 11 13 13 12 12 13 13 13 15 15 15 16 15 14 15 12 11 12 17 19 19 17
20 19 18 16 16 15 15 15 15 14 12 11 12 11 11 12 12 13 13 12 12 12 13 14 14 14 14 15 14 12 13 14 13 16 19 18 15 15
22 21 19 17 19 17 16 15 15 14 13 12 12 12 12 12 13 13 12 11 10 11 11 12 12 12 12 10 11 9 11 10 12 15 16 19 18 14
25 23 21 18 19 19 17 16 15 13 13 14 14 14 13 14 16 15 13 13 12 12 11 12 12 12 12 12 11 11 11 12 13 14 16 19 23 17
26 27 23 21 23 21 20 18 16 15 17 17 16 16 16 17 18 17 16 16 15 14 15 14 13 12 13 13 15 12 11 14 16 17 18 19 22 20
27 29 27 24 25 23 21 19 19 18 19 19 19 18 19 20 20 20 19 19 19 19 20 16 11 16 17 17 18 15 11 14 17 19 20 21 22 23
26 28 28 27 24 26 23 22 22 22 22 22 22 22 21 22 23 22 22 22 23 23 20 16 18 20 20 20 19 19 19 17 16 19 20 20 22 23
26 26 27 26 25 25 28 25 25 26 25 25 25 25 24 25 24 24 24 24 25 24 25 23 21 23 24 23 22 22 21 21 20 21 19 19 21 22
Wind_Direction
268 254 257 259 254 268 273 266 267 275 272 272 272 269 273 266 263 271 285 288 269 264 267 257 261 271 264 234 221 244 272 273 282 286 294 291 285 281
254 259 265 277 276 268 267 270 270 271 268 273 277 273 267 261 252 263 272 284 260 266 265 258 256 259 254 255 261 266 273 280 280 282 287 283 284 287
272 272 271 274 273 275 274 271 269 259 262 267 259 269 272 249 251 258 271 290 272 258 253 261 259 257 258 261 264 265 268 269 272 276 281 282 282 283
275 277 278 276 276 277 275 270 266 261 258 270 257 268 262 251 244 255 276 284 269 260 264 264 262 258 256 256 259 259 261 266 269 276 275 274 274 276
275 276 277 277 278 276 272 270 265 261 252 260 268 254 264 255 247 254 274 269 256 262 262 262 260 254 250 251 254 263 267 268 267 269 270 270 266 243
277 277 279 279 277 275 273 269 270 254 255 261 263 262 256 244 248 258 266 261 251 256 254 252 254 255 254 257 259 261 262 262 262 263 261 242 219 227
287 286 283 281 278 274 272 268 261 262 253 251 259 254 253 244 254 266 263 247 242 245 247 251 255 257 257 258 261 260 256 251 250 247 219 219 227 242
308 307 299 290 284 277 272 268 260 254 255 263 251 242 248 259 264 264 249 237 234 244 248 252 258 260 256 254 251 247 242 236 217 212 221 232 245 259
307 306 305 297 292 281 272 268 264 265 257 241 248 254 257 270 267 251 244 243 244 246 254 253 252 254 255 250 242 230 214 212 219 228 236 249 261 264
294 293 299 295 288 280 272 265 262 258 252 252 247 252 265 260 246 242 241 241 241 247 252 256 256 252 243 230 216 211 216 223 233 242 251 258 259 253
291 287 291 292 284 278 272 265 264 261 260 257 254 253 250 243 236 236 240 244 245 249 248 247 248 237 225 213 213 218 227 234 245 251 252 249 246 252
292 292 287 283 282 277 275 269 262 257 256 252 249 244 241 239 242 243 243 246 249 252 248 236 237 217 214 220 225 229 231 239 246 249 252 252 255 262
298 295 284 278 275 276 272 261 251 250 253 251 249 247 245 246 248 245 243 241 242 242 254 226 223 207 209 204 218 223 224 235 246 254 258 259 262 268
297 291 277 269 267 265 259 252 250 251 256 257 258 257 256 251 246 242 238 235 235 235 232 228 216 211 219 231 234 236 243 248 247 253 258 263 267 273
289 286 277 267 256 253 255 258 262 265 262 260 259 256 251 244 240 241 240 236 233 232 232 230 233 232 238 241 246 249 250 255 256 255 261 264 266 275
283 282 269 258 248 252 252 256 264 264 263 257 248 241 243 246 245 242 241 241 238 238 238 235 239 247 252 253 253 253 256 244 253 248 256 266 273 277
273 269 257 252 252 255 258 259 262 262 261 257 251 249 246 242 239 239 239 238 241 242 244 244 243 244 248 256 261 260 252 255 255 252 267 274 275 281
264 261 257 252 256 258 259 260 261 261 263 256 250 249 245 242 241 241 239 238 241 240 237 237 244 250 255 262 269 261 261 263 261 271 278 281 281 279
260 261 253 250 254 261 259 260 259 264 260 253 251 248 244 241 242 243 243 241 238 238 237 242 246 254 265 271 273 270 267 256 263 268 274 280 287 296
257 262 256 246 253 259 259 258 260 260 257 256 255 251 247 245 246 246 246 247 242 239 241 246 249 256 264 276 273 273 276 274 274 278 285 283 286 294
260 265 267 263 248 252 256 256 260 261 258 256 254 253 251 251 251 251 249 248 249 246 247 248 260 252 254 263 274 288 277 276 279 283 288 290 294 295
268 267 269 269 269 247 256 255 256 258 258 258 257 256 254 254 255 255 254 254 255 258 258 250 241 251 257 262 274 280 285 284 281 281 284 286 289 287
270 271 272 272 269 256 256 257 258 259 259 259 259 259 258 257 259 259 258 257 256 256 259 258 250 250 257 262 270 275 278 285 287 284 279 277 277 282
Height
1540 1540 1542 1545 1546 1546 1547 1547 1547 1544 1541 1543 1545 1545 1546 1545 1545 1545 1544 1543 1543 1545 1546 1545 1545 1547 1547 1548 1546 1549 1550 1550 1552 1552 1551 1552 1551 1551
1538 1540 1540 1540 1540 1541 1541 1540 1540 1538 1537 1536 1538 1539 1539 1540 1538 1539 1539 1539 1539 1541 1541 1542 1540 1540 1542 1544 1543 1544 1545 1546 1548 1549 1548 1548 1548 1547
1535 1535 1534 1534 1533 1533 1534 1534 1534 1534 1531 1530 1530 1532 1535 1534 1535 1535 1535 1535 1534 1535 1537 1537 1538 1537 1536 1539 1539 1541 1542 1542 1544 1545 1545 1545 1544 1544
1529 1528 1528 1527 1527 1526 1526 1525 1525 1524 1525 1524 1525 1527 1527 1529 1529 1530 1530 1532 1531 1532 1533 1533 1534 1532 1532 1533 1535 1536 1538 1538 1540 1541 1541 1541 1541 1540
1523 1523 1523 1521 1519 1519 1520 1519 1518 1516 1518 1518 1519 1520 1522 1520 1525 1524 1525 1525 1526 1528 1529 1528 1529 1528 1528 1531 1531 1533 1534 1535 1536 1537 1537 1536 1537 1537
1518 1518 1516 1515 1513 1513 1511 1512 1513 1513 1513 1513 1514 1514 1515 1517 1520 1520 1520 1521 1521 1524 1525 1525 1525 1525 1526 1526 1528 1528 1530 1531 1532 1532 1532 1533 1534 1535
1512 1511 1510 1509 1508 1506 1506 1507 1506 1508 1508 1507 1508 1509 1511 1513 1515 1516 1516 1518 1516 1519 1521 1521 1521 1522 1522 1522 1523 1524 1525 1526 1528 1529 1529 1530 1531 1532
1506 1506 1505 1503 1502 1502 1502 1502 1502 1502 1503 1504 1503 1504 1507 1508 1510 1513 1512 1513 1511 1513 1517 1516 1517 1518 1517 1518 1519 1519 1521 1522 1524 1525 1526 1527 1528 1530
1503 1502 1502 1499 1497 1497 1496 1497 1497 1498 1497 1498 1499 1501 1502 1504 1506 1507 1508 1510 1508 1511 1512 1512 1514 1514 1514 1514 1515 1516 1518 1520 1521 1522 1523 1524 1525 1526
1499 1497 1497 1495 1493 1492 1492 1493 1493 1493 1494 1494 1495 1498 1498 1499 1501 1504 1505 1505 1504 1507 1508 1509 1510 1510 1510 1510 1512 1513 1515 1517 1518 1519 1520 1521 1522 1522
1495 1493 1491 1490 1490 1489 1489 1489 1488 1490 1490 1490 1492 1491 1492 1494 1497 1499 1499 1500 1500 1502 1505 1506 1506 1506 1507 1508 1510 1511 1512 1514 1515 1516 1517 1517 1518 1518
1492 1489 1488 1487 1487 1486 1486 1485 1486 1486 1485 1487 1487 1488 1489 1491 1494 1495 1495 1496 1497 1499 1501 1502 1502 1504 1505 1505 1506 1508 1509 1510 1512 1512 1513 1513 1513 1514
1487 1486 1485 1484 1484 1483 1482 1483 1483 1483 1484 1484 1485 1485 1486 1487 1489 1491 1491 1492 1493 1495 1497 1498 1499 1500 1502 1502 1503 1505 1506 1507 1508 1508 1508 1508 1508 1509
1484 1483 1482 1481 1481 1480 1480 1480 1480 1480 1481 1481 1481 1482 1483 1484 1486 1487 1487 1489 1490 1491 1494 1495 1496 1498 1499 1500 1501 1502 1502 1503 1504 1504 1504 1503 1503 1504
1480 1479 1478 1477 1477 1477 1478 1478 1477 1478 1478 1478 1478 1479 1481 1481 1482 1483 1485 1486 1487 1488 1490 1492 1493 1494 1496 1496 1496 1497 1498 1499 1499 1499 1498 1498 1498 1499
1476 1475 1474 1474 1474 1474 1474 1475 1475 1475 1475 1475 1475 1476 1477 1478 1479 1481 1482 1483 1484 1485 1487 1488 1490 1490 1491 1491 1492 1493 1493 1494 1494 1493 1493 1493 1493 1493
1471 1471 1470 1471 1471 1471 1472 1472 1472 1472 1472 1472 1473 1473 1474 1475 1476 1478 1479 1480 1481 1482 1484 1485 1486 1486 1487 1487 1487 1488 1488 1488 1488 1489 1488 1487 1488 1487
1466 1466 1466 1467 1467 1468 1468 1469 1469 1468 1469 1469 1469 1470 1471 1473 1474 1476 1477 1478 1479 1479 1481 1482 1482 1482 1483 1483 1483 1483 1483 1483 1483 1482 1482 1481 1481 1482
1460 1461 1462 1463 1463 1463 1464 1464 1464 1465 1465 1465 1466 1467 1468 1470 1471 1472 1473 1474 1475 1476 1477 1477 1478 1478 1478 1478 1479 1479 1479 1479 1478 1478 1478 1476 1473 1475
1455 1455 1456 1457 1458 1458 1459 1459 1460 1461 1461 1461 1462 1463 1465 1466 1467 1468 1470 1471 1472 1473 1473 1474 1474 1474 1474 1474 1473 1474 1475 1474 1473 1472 1472 1470 1469 1468
1450 1450 1450 1451 1452 1453 1454 1455 1455 1455 1456 1456 1457 1459 1460 1461 1462 1464 1465 1466 1467 1467 1468 1469 1471 1470 1469 1468 1468 1468 1470 1470 1468 1467 1466 1464 1462 1460
1444 1444 1444 1445 1446 1447 1449 1449 1449 1450 1450 1451 1452 1454 1455 1456 1456 1458 1459 1460 1460 1461 1462 1464 1465 1464 1463 1462 1463 1463 1462 1463 1463 1461 1460 1459 1458 1454
1438 1438 1438 1438 1439 1440 1441 1442 1443 1443 1444 1445 1446 1447 1449 1449 1451 1451 1452 1453 1454 1455 1455 1456 1458 1457 1456 1456 1457 1457 1456 1456 1455 1454 1454 1453 1451 1449